Portada
METAR-TAF:

METAR-TAF

Aeropuertos :

Valence, Francia

latitud: 44-54-58N, longitud: 4-58-06E, altitud: 160 m

Observación

El informe se hizo hace 7 horas y 41 minutos, a las 18:00 UTC
Viento 4 kt del este-sureste
Temperatura 18°C
Humedad 83%
Presión 1014 hPa
Visibilidad 10 km o más

METAR: LFLU 221800Z AUTO 12004KT 9999 BKN052/// OVC072/// ///CB 18/15 Q1014

Hora: 03:41 (01:41 UTC)


TAF: falta

Observaciones y pronósticos meteorológicos de más de 4000 aeropuertos (mensajes METAR y TAF).

Los puntos amarillos y rojos representan las estaciones disponibles.

Ponga el ratón en el punto deseado para ver el nombre de la estación.

Haga clic para ver las observaciones y los pronósticos meteorológicos.

Para cambiar el mapa : haga clic en los botones verdes con una cruz de color negro para hacer un zoom, en el botón verde con un guión para alejar o en las flechas verdes para mapas adyacentes.


METAR-TAF: